Time,TemperatureF,DewpointF,PressureIn,WindDirection,WindDirectionDegrees,WindSpeedMPH,WindSpeedGustMPH,Humidity,HourlyPrecipIn,Conditions,Clouds,dailyrainin,SoftwareType,DateUTC
2013-03-21 00:00:00,55.0,27.9,30.07,WSW,248,0.0,4.0,35,0.00,,,0.00,VWS V14.01,2013-03-21 06:00:00,
2013-03-21 00:05:00,54.8,27.7,30.07,WSW,248,0.0,0.0,35,0.00,,,0.00,VWS V14.01,2013-03-21 06:05:00,
2013-03-21 00:10:00,54.7,27.6,30.07,WSW,248,0.0,3.0,35,0.00,,,0.00,VWS V14.01,2013-03-21 06:10:00,
2013-03-21 00:15:00,54.7,27.6,30.07,WSW,249,0.0,3.0,35,0.00,,,0.00,VWS V14.01,2013-03-21 06:15:00,
2013-03-21 00:16:00,54.7,27.6,30.07,WSW,248,0.0,3.0,35,0.00,,,0.00,VWS V14.01,2013-03-21 06:16:00,
2013-03-21 00:21:00,54.7,27.6,30.06,WSW,249,0.0,0.0,35,0.00,,,0.00,VWS V14.01,2013-03-21 06:21:00,
2013-03-21 00:26:00,54.8,27.7,30.06,WSW,249,0.0,0.0,35,0.00,,,0.00,VWS V14.01,2013-03-21 06:26:00,
2013-03-21 00:30:00,54.6,27.5,30.06,WSW,249,1.0,2.0,35,0.00,,,0.00,VWS V14.01,2013-03-21 06:30:00,
2013-03-21 00:31:00,54.7,27.6,30.06,WSW,249,0.0,0.0,35,0.00,,,0.00,VWS V14.01,2013-03-21 06:31:00,
2013-03-21 00:36:00,54.4,27.3,30.06,WSW,249,0.0,1.0,35,0.00,,,0.00,VWS V14.01,2013-03-21 06:36:00,
2013-03-21 00:41:00,54.1,27.1,30.06,WSW,249,0.0,3.0,35,0.00,,,0.00,VWS V14.01,2013-03-21 06:41:00,
2013-03-21 00:45:00,53.8,27.5,30.05,WSW,246,4.0,4.0,36,0.00,,,0.00,VWS V14.01,2013-03-21 06:45:00,
2013-03-21 00:46:00,53.9,27.6,30.05,WSW,249,0.0,3.0,36,0.00,,,0.00,VWS V14.01,2013-03-21 06:46:00,
2013-03-21 00:51:00,53.7,27.4,30.05,WSW,244,1.0,5.0,36,0.00,,,0.00,VWS V14.01,2013-03-21 06:51:00,
2013-03-21 00:56:00,53.5,27.2,30.05,SW,236,2.0,5.0,36,0.00,,,0.00,VWS V14.01,2013-03-21 06:56:00,
2013-03-21 01:00:00,53.5,27.2,30.05,SW,236,0.0,5.0,36,0.00,,,0.00,VWS V14.01,2013-03-21 07:00:00,
2013-03-21 01:01:00,53.5,27.2,30.05,SW,236,0.0,5.0,36,0.00,,,0.00,VWS V14.01,2013-03-21 07:01:00,
2013-03-21 01:06:00,53.4,27.1,30.05,SW,236,0.0,1.0,36,0.00,,,0.00,VWS V14.01,2013-03-21 07:06:00,
2013-03-21 01:11:00,53.4,27.1,30.05,SW,236,2.0,3.0,36,0.00,,,0.00,VWS V14.01,2013-03-21 07:11:00,
2013-03-21 01:15:00,53.4,27.1,30.05,SW,236,0.0,3.0,36,0.00,,,0.00,VWS V14.01,2013-03-21 07:15:00,
2013-03-21 01:16:00,53.4,27.1,30.04,SW,236,0.0,3.0,36,0.00,,,0.00,VWS V14.01,2013-03-21 07:16:00,
2013-03-21 01:21:00,53.4,27.8,30.04,SW,236,0.0,3.0,37,0.00,,,0.00,VWS V14.01,2013-03-21 07:21:00,
2013-03-21 01:26:00,53.5,27.2,30.04,SW,236,0.0,3.0,36,0.00,,,0.00,VWS V14.01,2013-03-21 07:26:00,
2013-03-21 01:30:00,53.6,28.0,30.04,West,259,0.0,6.0,37,0.00,,,0.00,VWS V14.01,2013-03-21 07:30:00,
2013-03-21 01:31:00,53.5,27.9,30.04,West,259,2.0,6.0,37,0.00,,,0.00,VWS V14.01,2013-03-21 07:31:00,
2013-03-21 01:36:00,53.6,28.0,30.04,West,259,0.0,1.0,37,0.00,,,0.00,VWS V14.01,2013-03-21 07:36:00,
2013-03-21 01:42:00,53.5,27.9,30.04,West,259,0.0,1.0,37,0.00,,,0.00,VWS V14.01,2013-03-21 07:42:00,
2013-03-21 01:45:00,53.2,27.6,30.04,West,259,2.0,3.0,37,0.00,,,0.00,VWS V14.01,2013-03-21 07:45:00,
2013-03-21 01:47:00,53.2,27.6,30.04,West,259,0.0,1.0,37,0.00,,,0.00,VWS V14.01,2013-03-21 07:47:00,
2013-03-21 01:52:00,53.1,27.5,30.04,West,259,2.0,3.0,37,0.00,,,0.00,VWS V14.01,2013-03-21 07:52:00,
2013-03-21 01:57:00,53.1,27.5,30.04,West,259,1.0,3.0,37,0.00,,,0.00,VWS V14.01,2013-03-21 07:57:00,
2013-03-21 02:00:00,53.3,27.7,30.03,WNW,286,2.0,6.0,37,0.00,,,0.00,VWS V14.01,2013-03-21 08:00:00,
2013-03-21 02:02:00,53.3,27.7,30.03,WNW,286,2.0,6.0,37,0.00,,,0.00,VWS V14.01,2013-03-21 08:02:00,
2013-03-21 02:07:00,53.5,27.9,30.03,WNW,284,1.0,4.0,37,0.00,,,0.00,VWS V14.01,2013-03-21 08:07:00,
2013-03-21 02:12:00,53.5,27.9,30.02,WNW,284,1.0,4.0,37,0.00,,,0.00,VWS V14.01,2013-03-21 08:12:00,
2013-03-21 02:15:00,53.2,27.6,30.02,West,280,1.0,4.0,37,0.00,,,0.00,VWS V14.01,2013-03-21 08:15:00,
2013-03-21 02:17:00,53.2,27.6,30.02,West,280,0.0,4.0,37,0.00,,,0.00,VWS V14.01,2013-03-21 08:17:00,
2013-03-21 02:22:00,53.0,27.4,30.02,West,281,0.0,4.0,37,0.00,,,0.00,VWS V14.01,2013-03-21 08:22:00,
2013-03-21 02:27:00,52.8,27.3,30.02,West,280,0.0,4.0,37,0.00,,,0.00,VWS V14.01,2013-03-21 08:27:00,
2013-03-21 02:30:00,52.7,27.2,30.02,West,280,0.0,4.0,37,0.00,,,0.00,VWS V14.01,2013-03-21 08:30:00,
2013-03-21 02:32:00,52.7,27.2,30.02,West,280,0.0,4.0,37,0.00,,,0.00,VWS V14.01,2013-03-21 08:32:00,
2013-03-21 02:37:00,52.7,27.2,30.01,WNW,282,0.0,1.0,37,0.00,,,0.00,VWS V14.01,2013-03-21 08:37:00,
2013-03-21 02:42:00,52.9,27.4,30.01,WNW,282,0.0,1.0,37,0.00,,,0.00,VWS V14.01,2013-03-21 08:42:00,
2013-03-21 02:45:00,52.9,27.4,30.01,WNW,283,0.0,1.0,37,0.00,,,0.00,VWS V14.01,2013-03-21 08:45:00,
2013-03-21 02:47:00,52.9,27.4,30.01,WNW,283,0.0,1.0,37,0.00,,,0.00,VWS V14.01,2013-03-21 08:47:00,
2013-03-21 02:52:00,52.9,27.4,30.01,WNW,284,0.0,0.0,37,0.00,,,0.00,VWS V14.01,2013-03-21 08:52:00,
2013-03-21 02:57:00,52.8,27.3,30.00,WNW,283,0.0,3.0,37,0.00,,,0.00,VWS V14.01,2013-03-21 08:57:00,
2013-03-21 03:00:00,52.7,27.2,30.00,WNW,283,0.0,3.0,37,0.00,,,0.00,VWS V14.01,2013-03-21 09:00:00,
2013-03-21 03:02:00,52.7,27.2,30.00,WNW,283,1.0,3.0,37,0.00,,,0.00,VWS V14.01,2013-03-21 09:02:00,
2013-03-21 03:07:00,52.6,27.1,30.00,WNW,284,0.0,2.0,37,0.00,,,0.00,VWS V14.01,2013-03-21 09:07:00,
2013-03-21 03:12:00,52.7,27.2,29.99,WNW,284,0.0,2.0,37,0.00,,,0.00,VWS V14.01,2013-03-21 09:12:00,
2013-03-21 03:15:00,52.2,26.7,29.99,WNW,300,0.0,2.0,37,0.00,,,0.00,VWS V14.01,2013-03-21 09:15:00,
2013-03-21 03:17:00,52.2,26.7,29.99,WNW,300,0.0,2.0,37,0.00,,,0.00,VWS V14.01,2013-03-21 09:17:00,
2013-03-21 03:22:00,51.6,26.8,29.98,WNW,300,0.0,0.0,38,0.00,,,0.00,VWS V14.01,2013-03-21 09:22:00,
2013-03-21 03:27:00,51.3,27.2,29.98,WNW,300,0.0,0.0,39,0.00,,,0.00,VWS V14.01,2013-03-21 09:27:00,
2013-03-21 03:30:00,51.0,26.9,29.98,WNW,300,0.0,0.0,39,0.00,,,0.00,VWS V14.01,2013-03-21 09:30:00,
2013-03-21 03:32:00,51.0,26.9,29.98,WNW,300,0.0,0.0,39,0.00,,,0.00,VWS V14.01,2013-03-21 09:32:00,
2013-03-21 03:37:00,50.8,26.8,29.97,West,279,0.0,4.0,39,0.00,,,0.00,VWS V14.01,2013-03-21 09:37:00,
2013-03-21 03:42:00,50.9,26.8,29.97,West,279,0.0,4.0,39,0.00,,,0.00,VWS V14.01,2013-03-21 09:42:00,
2013-03-21 03:45:00,50.9,26.8,29.97,West,278,0.0,4.0,39,0.00,,,0.00,VWS V14.01,2013-03-21 09:45:00,
2013-03-21 03:48:00,50.9,26.8,29.97,West,278,0.0,4.0,39,0.00,,,0.00,VWS V14.01,2013-03-21 09:48:00,
2013-03-21 03:53:00,51.0,26.9,29.97,West,273,3.0,5.0,39,0.00,,,0.00,VWS V14.01,2013-03-21 09:53:00,
2013-03-21 03:58:00,51.5,26.8,29.96,West,273,4.0,5.0,38,0.00,,,0.00,VWS V14.01,2013-03-21 09:58:00,
2013-03-21 04:00:00,52.1,27.3,29.97,WSW,249,5.0,6.0,38,0.00,,,0.00,VWS V14.01,2013-03-21 10:00:00,
2013-03-21 04:03:00,52.1,27.3,29.97,WSW,249,5.0,6.0,38,0.00,,,0.00,VWS V14.01,2013-03-21 10:03:00,
2013-03-21 04:08:00,52.5,27.0,29.97,West,259,5.0,9.0,37,0.00,,,0.00,VWS V14.01,2013-03-21 10:08:00,
2013-03-21 04:13:00,52.9,27.4,29.97,WSW,242,5.0,9.0,37,0.00,,,0.00,VWS V14.01,2013-03-21 10:13:00,
2013-03-21 04:15:00,53.1,26.9,29.97,WSW,246,5.0,9.0,36,0.00,,,0.00,VWS V14.01,2013-03-21 10:15:00,
2013-03-21 04:18:00,53.1,26.9,29.97,WSW,247,5.0,5.0,36,0.00,,,0.00,VWS V14.01,2013-03-21 10:18:00,
2013-03-21 04:23:00,52.8,26.6,29.97,SSW,212,7.0,8.0,36,0.00,,,0.00,VWS V14.01,2013-03-21 10:23:00,
2013-03-21 04:28:00,52.2,26.7,29.96,SW,234,3.0,8.0,37,0.00,,,0.00,VWS V14.01,2013-03-21 10:28:00,
2013-03-21 04:30:00,51.8,26.4,29.96,SW,223,4.0,8.0,37,0.00,,,0.00,VWS V14.01,2013-03-21 10:30:00,
2013-03-21 04:33:00,51.8,26.4,29.96,SW,223,4.0,8.0,37,0.00,,,0.00,VWS V14.01,2013-03-21 10:33:00,
2013-03-21 04:38:00,51.5,26.8,29.96,WSW,240,3.0,6.0,38,0.00,,,0.00,VWS V14.01,2013-03-21 10:38:00,
2013-03-21 04:43:00,51.8,27.0,29.96,WSW,244,2.0,7.0,38,0.00,,,0.00,VWS V14.01,2013-03-21 10:43:00,
2013-03-21 04:45:00,52.2,26.7,29.95,WSW,246,3.0,7.0,37,0.00,,,0.00,VWS V14.01,2013-03-21 10:45:00,
2013-03-21 04:48:00,52.2,26.7,29.95,WSW,246,1.0,3.0,37,0.00,,,0.00,VWS V14.01,2013-03-21 10:48:00,
2013-03-21 04:53:00,52.4,26.9,29.95,WSW,245,0.0,4.0,37,0.00,,,0.00,VWS V14.01,2013-03-21 10:53:00,
2013-03-21 04:58:00,52.4,26.9,29.95,WSW,245,0.0,4.0,37,0.00,,,0.00,VWS V14.01,2013-03-21 10:58:00,
2013-03-21 05:00:00,52.3,26.8,29.95,WSW,245,0.0,4.0,37,0.00,,,0.00,VWS V14.01,2013-03-21 11:00:00,
2013-03-21 05:03:00,52.3,26.8,29.95,WSW,245,0.0,0.0,37,0.00,,,0.00,VWS V14.01,2013-03-21 11:03:00,
2013-03-21 05:08:00,52.2,26.7,29.95,WSW,245,0.0,0.0,37,0.00,,,0.00,VWS V14.01,2013-03-21 11:08:00,
2013-03-21 05:13:00,52.3,26.8,29.95,WSW,245,0.0,3.0,37,0.00,,,0.00,VWS V14.01,2013-03-21 11:13:00,
2013-03-21 05:15:00,52.4,26.9,29.95,WSW,245,0.0,3.0,37,0.00,,,0.00,VWS V14.01,2013-03-21 11:15:00,
2013-03-21 05:18:00,52.4,26.9,29.95,WSW,245,0.0,0.0,37,0.00,,,0.00,VWS V14.01,2013-03-21 11:18:00,
2013-03-21 05:23:00,52.5,27.0,29.94,WSW,245,0.0,0.0,37,0.00,,,0.00,VWS V14.01,2013-03-21 11:23:00,
2013-03-21 05:28:00,52.3,26.8,29.95,WSW,242,2.0,5.0,37,0.00,,,0.00,VWS V14.01,2013-03-21 11:28:00,
2013-03-21 05:30:00,52.0,26.5,29.95,WSW,237,0.0,5.0,37,0.00,,,0.00,VWS V14.01,2013-03-21 11:30:00,
2013-03-21 05:33:00,51.9,26.5,29.95,WSW,237,0.0,0.0,37,0.00,,,0.00,VWS V14.01,2013-03-21 11:33:00,
2013-03-21 05:38:00,51.8,27.0,29.94,SW,236,0.0,5.0,38,0.00,,,0.00,VWS V14.01,2013-03-21 11:38:00,
2013-03-21 05:43:00,51.8,27.0,29.94,WSW,242,6.0,11.0,38,0.00,,,0.00,VWS V14.01,2013-03-21 11:43:00,
2013-03-21 05:45:00,52.3,27.5,29.95,SW,236,5.0,11.0,38,0.00,,,0.00,VWS V14.01,2013-03-21 11:45:00,
2013-03-21 05:48:00,52.3,26.8,29.95,SW,236,5.0,8.0,37,0.00,,,0.00,VWS V14.01,2013-03-21 11:48:00,
2013-03-21 05:53:00,52.2,27.4,29.95,SW,229,4.0,9.0,38,0.00,,,0.00,VWS V14.01,2013-03-21 11:53:00,
2013-03-21 05:58:00,51.9,26.5,29.94,SW,236,4.0,9.0,37,0.00,,,0.00,VWS V14.01,2013-03-21 11:58:00,
2013-03-21 06:00:00,51.6,26.8,29.94,West,260,0.0,9.0,38,0.00,,,0.00,VWS V14.01,2013-03-21 12:00:00,
2013-03-21 06:03:00,51.6,26.8,29.94,WSW,250,4.0,7.0,38,0.00,,,0.00,VWS V14.01,2013-03-21 12:03:00,
2013-03-21 06:08:00,51.3,26.6,29.94,West,268,4.0,8.0,38,0.00,,,0.00,VWS V14.01,2013-03-21 12:08:00,
2013-03-21 06:13:00,50.9,26.2,29.95,West,266,0.0,8.0,38,0.00,,,0.00,VWS V14.01,2013-03-21 12:13:00,
2013-03-21 06:15:00,50.7,26.7,29.94,West,260,6.0,9.0,39,0.00,,,0.00,VWS V14.01,2013-03-21 12:15:00,
2013-03-21 06:18:00,50.7,26.7,29.95,West,261,2.0,8.0,39,0.00,,,0.00,VWS V14.01,2013-03-21 12:18:00,
2013-03-21 06:23:00,51.4,27.3,29.94,West,260,0.0,15.0,39,0.00,,,0.00,VWS V14.01,2013-03-21 12:23:00,
2013-03-21 06:28:00,52.0,27.2,29.95,NW,304,0.0,15.0,38,0.00,,,0.00,VWS V14.01,2013-03-21 12:28:00,
2013-03-21 06:30:00,52.2,27.4,29.95,West,266,3.0,15.0,38,0.00,,,0.00,VWS V14.01,2013-03-21 12:30:00,
2013-03-21 06:33:00,52.2,27.4,29.95,West,276,1.0,6.0,38,0.00,,,0.00,VWS V14.01,2013-03-21 12:33:00,
2013-03-21 06:38:00,52.0,27.8,29.95,West,277,5.0,9.0,39,0.00,,,0.00,VWS V14.01,2013-03-21 12:38:00,
2013-03-21 06:43:00,51.8,28.3,29.95,WNW,292,2.0,9.0,40,0.00,,,0.00,VWS V14.01,2013-03-21 12:43:00,
2013-03-21 06:45:00,51.5,28.0,29.95,WNW,290,0.0,9.0,40,0.00,,,0.00,VWS V14.01,2013-03-21 12:45:00,
2013-03-21 06:49:00,51.5,28.0,29.95,West,279,4.0,5.0,40,0.00,,,0.00,VWS V14.01,2013-03-21 12:49:00,
2013-03-21 06:54:00,51.3,28.4,29.95,WNW,302,4.0,8.0,41,0.00,,,0.00,VWS V14.01,2013-03-21 12:54:00,
2013-03-21 06:59:00,51.2,28.3,29.95,West,277,4.0,8.0,41,0.00,,,0.00,VWS V14.01,2013-03-21 12:59:00,
2013-03-21 07:00:00,51.3,28.4,29.95,WNW,284,1.0,8.0,41,0.00,,,0.00,VWS V14.01,2013-03-21 13:00:00,
2013-03-21 07:04:00,51.3,28.4,29.95,WNW,296,6.0,6.0,41,0.00,,,0.00,VWS V14.01,2013-03-21 13:04:00,
2013-03-21 07:09:00,51.4,28.5,29.94,WNW,283,3.0,8.0,41,0.00,,,0.00,VWS V14.01,2013-03-21 13:09:00,
2013-03-21 07:14:00,51.3,28.4,29.94,WNW,292,3.0,9.0,41,0.00,,,0.00,VWS V14.01,2013-03-21 13:14:00,
2013-03-21 07:15:00,51.3,28.4,29.94,WNW,290,5.0,9.0,41,0.00,,,0.00,VWS V14.01,2013-03-21 13:15:00,
2013-03-21 07:19:00,51.3,28.4,29.95,NW,318,2.0,7.0,41,0.00,,,0.00,VWS V14.01,2013-03-21 13:19:00,
2013-03-21 07:24:00,51.4,28.5,29.95,West,280,4.0,10.0,41,0.00,,,0.00,VWS V14.01,2013-03-21 13:24:00,
2013-03-21 07:29:00,51.4,28.5,29.95,WNW,296,6.0,11.0,41,0.00,,,0.00,VWS V14.01,2013-03-21 13:29:00,
2013-03-21 07:30:00,51.2,28.9,29.95,WNW,298,7.0,11.0,42,0.00,,,0.00,VWS V14.01,2013-03-21 13:30:00,
2013-03-21 07:34:00,51.1,28.8,29.95,West,272,5.0,8.0,42,0.00,,,0.00,VWS V14.01,2013-03-21 13:34:00,
2013-03-21 07:39:00,50.8,29.1,29.95,NW,322,5.0,10.0,43,0.00,,,0.00,VWS V14.01,2013-03-21 13:39:00,
2013-03-21 07:44:00,50.6,30.1,29.95,NW,311,7.0,11.0,45,0.00,,,0.00,VWS V14.01,2013-03-21 13:44:00,
2013-03-21 07:45:00,50.4,29.9,29.95,WNW,289,3.0,11.0,45,0.00,,,0.00,VWS V14.01,2013-03-21 13:45:00,
2013-03-21 07:49:00,50.3,29.8,29.95,WNW,290,4.0,6.0,45,0.00,,,0.00,VWS V14.01,2013-03-21 13:49:00,
2013-03-21 07:54:00,50.1,30.1,29.95,NNW,329,1.0,9.0,46,0.00,,,0.00,VWS V14.01,2013-03-21 13:54:00,
2013-03-21 07:59:00,50.0,30.6,29.95,NW,309,7.0,11.0,47,0.00,,,0.00,VWS V14.01,2013-03-21 13:59:00,
2013-03-21 08:00:00,50.0,31.1,29.94,WNW,288,4.0,14.0,48,0.00,,,0.00,VWS V14.01,2013-03-21 14:00:00,
2013-03-21 08:04:00,50.1,31.2,29.94,WNW,294,8.0,10.0,48,0.00,,,0.00,VWS V14.01,2013-03-21 14:04:00,
2013-03-21 08:09:00,50.3,31.4,29.94,NW,322,1.0,14.0,48,0.00,,,0.00,VWS V14.01,2013-03-21 14:09:00,
2013-03-21 08:14:00,50.4,31.5,29.94,WNW,298,4.0,14.0,48,0.00,,,0.00,VWS V14.01,2013-03-21 14:14:00,
2013-03-21 08:15:00,50.6,31.6,29.94,NW,309,4.0,14.0,48,0.00,,,0.00,VWS V14.01,2013-03-21 14:15:00,
2013-03-21 08:19:00,50.6,31.1,29.94,NNW,334,4.0,12.0,47,0.00,,,0.00,VWS V14.01,2013-03-21 14:19:00,
2013-03-21 08:24:00,50.9,31.4,29.94,WNW,302,5.0,12.0,47,0.00,,,0.00,VWS V14.01,2013-03-21 14:24:00,
2013-03-21 08:29:00,51.1,31.1,29.93,NW,310,5.0,12.0,46,0.00,,,0.00,VWS V14.01,2013-03-21 14:29:00,
2013-03-21 08:30:00,51.3,31.2,29.93,NW,304,5.0,12.0,46,0.00,,,0.00,VWS V14.01,2013-03-21 14:30:00,
2013-03-21 08:34:00,51.4,31.3,29.93,NNW,338,2.0,12.0,46,0.00,,,0.00,VWS V14.01,2013-03-21 14:34:00,
2013-03-21 08:39:00,51.9,31.2,29.94,WNW,290,9.0,14.0,45,0.00,,,0.00,VWS V14.01,2013-03-21 14:39:00,
2013-03-21 08:44:00,52.1,31.4,29.94,NW,322,10.0,17.0,45,0.00,,,0.00,VWS V14.01,2013-03-21 14:44:00,
2013-03-21 08:45:00,52.2,31.5,29.94,NW,312,5.0,17.0,45,0.00,,,0.00,VWS V14.01,2013-03-21 14:45:00,
2013-03-21 08:49:00,52.1,31.4,29.94,NNW,331,5.0,15.0,45,0.00,,,0.00,VWS V14.01,2013-03-21 14:49:00,
2013-03-21 08:54:00,52.1,32.0,29.94,WNW,298,4.0,16.0,46,0.00,,,0.00,VWS V14.01,2013-03-21 14:54:00,
2013-03-21 08:59:00,52.2,32.1,29.94,WNW,296,10.0,16.0,46,0.00,,,0.00,VWS V14.01,2013-03-21 14:59:00,
2013-03-21 09:00:00,52.3,32.2,29.94,NNE,14,4.0,16.0,46,0.00,,,0.00,VWS V14.01,2013-03-21 15:00:00,
2013-03-21 09:04:00,52.3,31.6,29.93,NW,306,8.0,12.0,45,0.00,,,0.00,VWS V14.01,2013-03-21 15:04:00,
2013-03-21 09:09:00,52.5,31.8,29.94,NW,323,14.0,21.0,45,0.00,,,0.00,VWS V14.01,2013-03-21 15:09:00,
2013-03-21 09:14:00,52.8,32.1,29.93,West,271,8.0,21.0,45,0.00,,,0.00,VWS V14.01,2013-03-21 15:14:00,
2013-03-21 09:15:00,53.1,31.8,29.93,West,281,7.0,21.0,44,0.00,,,0.00,VWS V14.01,2013-03-21 15:15:00,
2013-03-21 09:19:00,53.2,31.9,29.93,NW,304,4.0,15.0,44,0.00,,,0.00,VWS V14.01,2013-03-21 15:19:00,
2013-03-21 09:24:00,53.7,31.8,29.93,WNW,286,2.0,16.0,43,0.00,,,0.00,VWS V14.01,2013-03-21 15:24:00,
2013-03-21 09:29:00,54.4,31.8,29.93,NW,313,6.0,16.0,42,0.00,,,0.00,VWS V14.01,2013-03-21 15:29:00,
2013-03-21 09:30:00,54.8,32.2,29.92,WNW,286,9.0,16.0,42,0.00,,,0.00,VWS V14.01,2013-03-21 15:30:00,
2013-03-21 09:34:00,54.9,32.3,29.92,West,269,15.0,21.0,42,0.00,,,0.00,VWS V14.01,2013-03-21 15:34:00,
2013-03-21 09:39:00,54.7,32.1,29.92,West,275,13.0,24.0,42,0.00,,,0.00,VWS V14.01,2013-03-21 15:39:00,
2013-03-21 09:44:00,54.7,32.1,29.92,NNW,338,3.0,24.0,42,0.00,,,0.00,VWS V14.01,2013-03-21 15:44:00,
2013-03-21 09:45:00,54.6,32.0,29.92,West,275,18.0,25.0,42,0.00,,,0.00,VWS V14.01,2013-03-21 15:45:00,
2013-03-21 09:50:00,54.5,32.5,29.92,NNW,331,11.0,22.0,43,0.00,,,0.00,VWS V14.01,2013-03-21 15:50:00,
2013-03-21 09:55:00,54.5,32.5,29.91,WNW,302,16.0,23.0,43,0.00,,,0.00,VWS V14.01,2013-03-21 15:55:00,
2013-03-21 09:59:00,54.6,32.6,29.91,West,281,5.0,23.0,43,0.00,,,0.00,VWS V14.01,2013-03-21 15:59:00,
2013-03-21 10:00:00,55.1,33.0,29.91,WNW,286,9.0,23.0,43,0.00,,,0.00,VWS V14.01,2013-03-21 16:00:00,
2013-03-21 10:04:00,55.3,33.2,29.91,West,281,11.0,11.0,43,0.00,,,0.00,VWS V14.01,2013-03-21 16:04:00,
2013-03-21 10:09:00,55.6,32.3,29.90,West,275,9.0,25.0,41,0.00,,,0.00,VWS V14.01,2013-03-21 16:09:00,
2013-03-21 10:14:00,55.8,32.5,29.91,NW,308,9.0,25.0,41,0.00,,,0.00,VWS V14.01,2013-03-21 16:14:00,
2013-03-21 10:15:00,55.9,32.6,29.90,WNW,286,6.0,25.0,41,0.00,,,0.00,VWS V14.01,2013-03-21 16:15:00,
2013-03-21 10:20:00,56.2,32.8,29.90,NW,315,14.0,22.0,41,0.00,,,0.00,VWS V14.01,2013-03-21 16:20:00,
2013-03-21 10:25:00,56.5,32.5,29.90,NW,306,2.0,22.0,40,0.00,,,0.00,VWS V14.01,2013-03-21 16:25:00,
2013-03-21 10:30:00,57.2,32.5,29.90,West,281,4.0,22.0,39,0.00,,,0.00,VWS V14.01,2013-03-21 16:30:00,
2013-03-21 10:35:00,57.2,32.5,29.90,WNW,300,9.0,13.0,39,0.00,,,0.00,VWS V14.01,2013-03-21 16:35:00,
2013-03-21 10:40:00,57.5,32.1,29.90,West,259,7.0,21.0,38,0.00,,,0.00,VWS V14.01,2013-03-21 16:40:00,
2013-03-21 10:45:00,58.2,32.7,29.90,WNW,299,5.0,21.0,38,0.00,,,0.00,VWS V14.01,2013-03-21 16:45:00,
2013-03-21 10:50:00,58.4,32.2,29.90,NW,306,4.0,12.0,37,0.00,,,0.00,VWS V14.01,2013-03-21 16:50:00,
2013-03-21 10:55:00,58.8,31.9,29.89,WSW,250,7.0,14.0,36,0.00,,,0.00,VWS V14.01,2013-03-21 16:55:00,
2013-03-21 11:00:00,58.9,31.3,29.89,West,279,7.0,16.0,35,0.00,,,0.00,VWS V14.01,2013-03-21 17:00:00,
2013-03-21 11:05:00,59.0,32.1,29.89,West,270,5.0,13.0,36,0.00,,,0.00,VWS V14.01,2013-03-21 17:05:00,
2013-03-21 11:10:00,59.6,31.2,29.88,NW,304,2.0,20.0,34,0.00,,,0.00,VWS V14.01,2013-03-21 17:10:00,
2013-03-21 11:15:00,59.6,31.2,29.88,WNW,298,2.0,20.0,34,0.00,,,0.00,VWS V14.01,2013-03-21 17:15:00,
2013-03-21 11:20:00,59.7,31.3,29.88,WSW,238,3.0,7.0,34,0.00,,,0.00,VWS V14.01,2013-03-21 17:20:00,
2013-03-21 11:25:00,60.1,30.9,29.88,WNW,300,5.0,7.0,33,0.00,,,0.00,VWS V14.01,2013-03-21 17:25:00,
2013-03-21 11:30:00,60.6,30.6,29.87,West,263,6.0,8.0,32,0.00,,,0.00,VWS V14.01,2013-03-21 17:30:00,
2013-03-21 11:35:00,60.9,30.1,29.87,WNW,291,3.0,10.0,31,0.00,,,0.00,VWS V14.01,2013-03-21 17:35:00,
2013-03-21 11:40:00,61.3,28.8,29.87,WSW,247,8.0,16.0,29,0.00,,,0.00,VWS V14.01,2013-03-21 17:40:00,
2013-03-21 11:45:00,61.7,28.3,29.86,WNW,300,3.0,16.0,28,0.00,,,0.00,VWS V14.01,2013-03-21 17:45:00,
2013-03-21 11:50:00,61.9,27.6,29.86,West,278,14.0,21.0,27,0.00,,,0.00,VWS V14.01,2013-03-21 17:50:00,
2013-03-21 11:55:00,62.2,27.8,29.86,WNW,295,10.0,21.0,27,0.00,,,0.00,VWS V14.01,2013-03-21 17:55:00,
2013-03-21 12:00:00,62.1,27.8,29.85,West,280,5.0,21.0,27,0.00,,,0.00,VWS V14.01,2013-03-21 18:00:00,
2013-03-21 12:05:00,62.0,27.7,29.85,West,261,5.0,13.0,27,0.00,,,0.00,VWS V14.01,2013-03-21 18:05:00,
2013-03-21 12:10:00,61.6,28.2,29.85,NW,311,2.0,13.0,28,0.00,,,0.00,VWS V14.01,2013-03-21 18:10:00,
2013-03-21 12:15:00,62.1,28.6,29.84,WNW,284,2.0,14.0,28,0.00,,,0.00,VWS V14.01,2013-03-21 18:15:00,
2013-03-21 12:20:00,63.4,28.9,29.84,West,275,13.0,20.0,27,0.00,,,0.00,VWS V14.01,2013-03-21 18:20:00,
2013-03-21 12:25:00,63.6,27.2,29.83,West,261,11.0,21.0,25,0.00,,,0.00,VWS V14.01,2013-03-21 18:25:00,
2013-03-21 12:30:00,64.0,26.5,29.83,WSW,250,16.0,22.0,24,0.00,,,0.00,VWS V14.01,2013-03-21 18:30:00,
2013-03-21 12:35:00,64.1,26.6,29.83,West,278,15.0,20.0,24,0.00,,,0.00,VWS V14.01,2013-03-21 18:35:00,
2013-03-21 12:40:00,64.3,25.7,29.83,WNW,283,7.0,21.0,23,0.00,,,0.00,VWS V14.01,2013-03-21 18:40:00,
2013-03-21 12:45:00,64.9,24.1,29.83,WNW,286,21.0,24.0,21,0.00,,,0.00,VWS V14.01,2013-03-21 18:45:00,
2013-03-21 12:50:00,65.1,23.1,29.82,West,272,13.0,26.0,20,0.00,,,0.00,VWS V14.01,2013-03-21 18:50:00,
2013-03-21 12:55:00,65.1,23.1,29.82,West,266,8.0,26.0,20,0.00,,,0.00,VWS V14.01,2013-03-21 18:55:00,
2013-03-21 13:00:00,65.0,21.8,29.82,WNW,285,5.0,27.0,19,0.00,,,0.00,VWS V14.01,2013-03-21 19:00:00,
2013-03-21 13:05:00,65.5,22.2,29.81,NNW,328,5.0,15.0,19,0.00,,,0.00,VWS V14.01,2013-03-21 19:05:00,
2013-03-21 13:10:00,66.4,22.9,29.81,WSW,246,5.0,16.0,19,0.00,,,0.00,VWS V14.01,2013-03-21 19:10:00,
2013-03-21 13:15:00,66.8,22.0,29.81,West,265,20.0,24.0,18,0.00,,,0.00,VWS V14.01,2013-03-21 19:15:00,
2013-03-21 13:20:00,66.4,21.6,29.80,WSW,251,24.0,24.0,18,0.00,,,0.00,VWS V14.01,2013-03-21 19:20:00,
2013-03-21 13:25:00,66.1,20.0,29.80,NW,319,8.0,24.0,17,0.00,,,0.00,VWS V14.01,2013-03-21 19:25:00,
2013-03-21 13:30:00,66.3,20.2,29.80,WNW,287,9.0,24.0,17,0.00,,,0.00,VWS V14.01,2013-03-21 19:30:00,
2013-03-21 13:35:00,67.3,21.0,29.79,NNW,333,9.0,24.0,17,0.00,,,0.00,VWS V14.01,2013-03-21 19:35:00,
2013-03-21 13:40:00,67.2,19.5,29.79,West,274,17.0,29.0,16,0.00,,,0.00,VWS V14.01,2013-03-21 19:40:00,
2013-03-21 13:45:00,66.8,19.2,29.79,WSW,246,18.0,29.0,16,0.00,,,0.00,VWS V14.01,2013-03-21 19:45:00,
2013-03-21 13:51:00,66.9,19.3,29.78,West,275,5.0,16.0,16,0.00,,,0.00,VWS V14.01,2013-03-21 19:51:00,
2013-03-21 13:56:00,67.5,19.8,29.79,WNW,284,2.0,20.0,16,0.00,,,0.00,VWS V14.01,2013-03-21 19:56:00,
2013-03-21 14:00:00,67.9,20.1,29.78,SW,221,12.0,25.0,16,0.00,,,0.00,VWS V14.01,2013-03-21 20:00:00,
2013-03-21 14:01:00,67.8,20.0,29.78,SSW,207,21.0,25.0,16,0.00,,,0.00,VWS V14.01,2013-03-21 20:01:00,
2013-03-21 14:06:00,67.6,19.9,29.77,NNW,336,7.0,23.0,16,0.00,,,0.00,VWS V14.01,2013-03-21 20:06:00,
2013-03-21 14:11:00,67.7,19.9,29.77,WSW,257,16.0,25.0,16,0.00,,,0.00,VWS V14.01,2013-03-21 20:11:00,
2013-03-21 14:15:00,68.1,20.2,29.77,West,260,5.0,25.0,16,0.00,,,0.00,VWS V14.01,2013-03-21 20:15:00,
2013-03-21 14:16:00,67.9,20.1,29.77,SW,217,6.0,25.0,16,0.00,,,0.00,VWS V14.01,2013-03-21 20:16:00,
2013-03-21 14:21:00,68.0,18.7,29.76,WNW,300,21.0,26.0,15,0.00,,,0.00,VWS V14.01,2013-03-21 20:21:00,
2013-03-21 14:26:00,68.1,17.1,29.76,West,273,14.0,28.0,14,0.00,,,0.00,VWS V14.01,2013-03-21 20:26:00,
2013-03-21 14:30:00,68.9,16.1,29.75,West,279,15.0,28.0,13,0.00,,,0.00,VWS V14.01,2013-03-21 20:30:00,
2013-03-21 14:31:00,68.8,17.7,29.75,West,271,13.0,28.0,14,0.00,,,0.00,VWS V14.01,2013-03-21 20:31:00,
2013-03-21 14:36:00,68.8,16.0,29.76,West,268,22.0,35.0,13,0.00,,,0.00,VWS V14.01,2013-03-21 20:36:00,
2013-03-21 14:41:00,68.2,17.2,29.75,West,274,8.0,35.0,14,0.00,,,0.00,VWS V14.01,2013-03-21 20:41:00,
2013-03-21 14:45:00,68.2,17.2,29.75,WSW,248,13.0,35.0,14,0.00,,,0.00,VWS V14.01,2013-03-21 20:45:00,
2013-03-21 14:46:00,68.2,17.2,29.75,West,280,16.0,35.0,14,0.00,,,0.00,VWS V14.01,2013-03-21 20:46:00,
2013-03-21 14:51:00,68.4,15.7,29.75,West,281,20.0,32.0,13,0.00,,,0.00,VWS V14.01,2013-03-21 20:51:00,
2013-03-21 14:56:00,69.0,16.1,29.75,West,272,19.0,32.0,13,0.00,,,0.00,VWS V14.01,2013-03-21 20:56:00,
2013-03-21 15:00:00,68.9,14.2,29.74,WNW,290,16.0,32.0,12,0.00,,,0.00,VWS V14.01,2013-03-21 21:00:00,
2013-03-21 15:01:00,68.9,14.2,29.75,WNW,286,8.0,32.0,12,0.00,,,0.00,VWS V14.01,2013-03-21 21:01:00,
2013-03-21 15:06:00,68.7,14.1,29.74,West,281,17.0,29.0,12,0.00,,,0.00,VWS V14.01,2013-03-21 21:06:00,
2013-03-21 15:11:00,68.7,14.1,29.74,WNW,290,21.0,32.0,12,0.00,,,0.00,VWS V14.01,2013-03-21 21:11:00,
2013-03-21 15:15:00,68.8,14.1,29.74,WSW,246,20.0,32.0,12,0.00,,,0.00,VWS V14.01,2013-03-21 21:15:00,
2013-03-21 15:16:00,69.0,14.3,29.74,West,281,17.0,32.0,12,0.00,,,0.00,VWS V14.01,2013-03-21 21:16:00,
2013-03-21 15:21:00,68.8,14.1,29.75,WNW,283,22.0,30.0,12,0.00,,,0.00,VWS V14.01,2013-03-21 21:21:00,
2013-03-21 15:26:00,68.4,13.8,29.74,WSW,252,24.0,30.0,12,0.00,,,0.00,VWS V14.01,2013-03-21 21:26:00,
2013-03-21 15:30:00,69.1,14.4,29.74,WSW,257,19.0,30.0,12,0.00,,,0.00,VWS V14.01,2013-03-21 21:30:00,
2013-03-21 15:32:00,68.8,14.1,29.74,WNW,292,16.0,30.0,12,0.00,,,0.00,VWS V14.01,2013-03-21 21:32:00,
2013-03-21 15:37:00,69.1,14.4,29.74,WNW,300,13.0,33.0,12,0.00,,,0.00,VWS V14.01,2013-03-21 21:37:00,
2013-03-21 15:42:00,69.0,14.3,29.74,West,277,21.0,33.0,12,0.00,,,0.00,VWS V14.01,2013-03-21 21:42:00,
2013-03-21 15:45:00,69.2,12.5,29.74,West,279,18.0,33.0,11,0.00,,,0.00,VWS V14.01,2013-03-21 21:45:00,
2013-03-21 15:47:00,69.3,12.6,29.74,West,272,18.0,33.0,11,0.00,,,0.00,VWS V14.01,2013-03-21 21:47:00,
2013-03-21 15:52:00,68.9,12.3,29.74,WNW,298,19.0,33.0,11,0.00,,,0.00,VWS V14.01,2013-03-21 21:52:00,
2013-03-21 15:57:00,68.3,11.8,29.74,West,259,10.0,33.0,11,0.00,,,0.00,VWS V14.01,2013-03-21 21:57:00,
2013-03-21 16:00:00,68.9,10.1,29.74,West,269,21.0,35.0,10,0.00,,,0.00,VWS V14.01,2013-03-21 22:00:00,
2013-03-21 16:02:00,68.8,10.0,29.74,NW,322,21.0,35.0,10,0.00,,,0.00,VWS V14.01,2013-03-21 22:02:00,
2013-03-21 16:07:00,69.0,10.2,29.75,WNW,293,25.0,31.0,10,0.00,,,0.00,VWS V14.01,2013-03-21 22:07:00,
2013-03-21 16:12:00,68.9,10.1,29.75,West,281,25.0,33.0,10,0.00,,,0.00,VWS V14.01,2013-03-21 22:12:00,
2013-03-21 16:15:00,68.7,12.1,29.74,NW,307,21.0,33.0,11,0.00,,,0.00,VWS V14.01,2013-03-21 22:15:00,
2013-03-21 16:17:00,68.6,9.9,29.74,NW,317,11.0,33.0,10,0.00,,,0.00,VWS V14.01,2013-03-21 22:17:00,
2013-03-21 16:22:00,68.8,12.2,29.75,West,279,13.0,23.0,11,0.00,,,0.00,VWS V14.01,2013-03-21 22:22:00,
2013-03-21 16:27:00,69.2,12.5,29.74,West,265,14.0,23.0,11,0.00,,,0.00,VWS V14.01,2013-03-21 22:27:00,
2013-03-21 16:30:00,69.5,12.7,29.75,West,276,14.0,29.0,11,0.00,,,0.00,VWS V14.01,2013-03-21 22:30:00,
2013-03-21 16:32:00,69.5,12.7,29.75,West,266,14.0,29.0,11,0.00,,,0.00,VWS V14.01,2013-03-21 22:32:00,
2013-03-21 16:37:00,68.9,14.2,29.75,West,273,9.0,25.0,12,0.00,,,0.00,VWS V14.01,2013-03-21 22:37:00,
2013-03-21 16:42:00,68.8,14.1,29.75,West,271,12.0,25.0,12,0.00,,,0.00,VWS V14.01,2013-03-21 22:42:00,
2013-03-21 16:45:00,69.2,12.5,29.75,West,275,18.0,27.0,11,0.00,,,0.00,VWS V14.01,2013-03-21 22:45:00,
2013-03-21 16:47:00,69.2,12.5,29.75,West,265,19.0,27.0,11,0.00,,,0.00,VWS V14.01,2013-03-21 22:47:00,
2013-03-21 16:52:00,68.8,12.2,29.75,NNW,327,21.0,25.0,11,0.00,,,0.00,VWS V14.01,2013-03-21 22:52:00,
2013-03-21 16:57:00,68.8,12.2,29.75,WSW,241,20.0,25.0,11,0.00,,,0.00,VWS V14.01,2013-03-21 22:57:00,
2013-03-21 17:00:00,68.8,12.2,29.75,West,265,9.0,34.0,11,0.00,,,0.00,VWS V14.01,2013-03-21 23:00:00,
2013-03-21 17:02:00,68.9,12.3,29.75,West,262,11.0,34.0,11,0.00,,,0.00,VWS V14.01,2013-03-21 23:02:00,
2013-03-21 17:07:00,68.5,11.9,29.75,West,269,16.0,31.0,11,0.00,,,0.00,VWS V14.01,2013-03-21 23:07:00,
2013-03-21 17:12:00,68.2,11.7,29.75,WSW,250,14.0,31.0,11,0.00,,,0.00,VWS V14.01,2013-03-21 23:12:00,
2013-03-21 17:15:00,68.5,11.9,29.75,West,275,12.0,31.0,11,0.00,,,0.00,VWS V14.01,2013-03-21 23:15:00,
2013-03-21 17:17:00,68.5,11.9,29.75,NW,319,2.0,31.0,11,0.00,,,0.00,VWS V14.01,2013-03-21 23:17:00,
2013-03-21 17:22:00,68.6,12.0,29.75,NW,305,21.0,28.0,11,0.00,,,0.00,VWS V14.01,2013-03-21 23:22:00,
2013-03-21 17:27:00,68.2,11.7,29.75,West,279,18.0,28.0,11,0.00,,,0.00,VWS V14.01,2013-03-21 23:27:00,
2013-03-21 17:30:00,68.0,11.6,29.75,WSW,256,20.0,28.0,11,0.00,,,0.00,VWS V14.01,2013-03-21 23:30:00,
2013-03-21 17:32:00,68.0,11.6,29.75,West,277,7.0,28.0,11,0.00,,,0.00,VWS V14.01,2013-03-21 23:32:00,
2013-03-21 17:37:00,68.1,11.6,29.75,WNW,293,16.0,26.0,11,0.00,,,0.00,VWS V14.01,2013-03-21 23:37:00,
2013-03-21 17:42:00,67.8,11.4,29.75,West,266,23.0,31.0,11,0.00,,,0.00,VWS V14.01,2013-03-21 23:42:00,
2013-03-21 17:45:00,67.8,11.4,29.75,WSW,256,22.0,31.0,11,0.00,,,0.00,VWS V14.01,2013-03-21 23:45:00,
2013-03-21 17:47:00,67.8,11.4,29.75,West,265,22.0,31.0,11,0.00,,,0.00,VWS V14.01,2013-03-21 23:47:00,
2013-03-21 17:52:00,67.6,11.2,29.75,WSW,257,8.0,25.0,11,0.00,,,0.00,VWS V14.01,2013-03-21 23:52:00,
2013-03-21 17:58:00,67.7,13.3,29.75,WSW,257,8.0,25.0,12,0.00,,,0.00,VWS V14.01,2013-03-21 23:58:00,
2013-03-21 18:00:00,67.8,13.4,29.76,West,273,17.0,25.0,12,0.00,,,0.00,VWS V14.01,2013-03-22 00:00:00,
2013-03-21 18:03:00,67.8,13.4,29.76,West,273,17.0,25.0,12,0.00,,,0.00,VWS V14.01,2013-03-22 00:03:00,
2013-03-21 18:08:00,67.5,13.1,29.76,NW,306,17.0,24.0,12,0.00,,,0.00,VWS V14.01,2013-03-22 00:08:00,
2013-03-21 18:13:00,67.4,13.1,29.76,NNW,327,7.0,24.0,12,0.00,,,0.00,VWS V14.01,2013-03-22 00:13:00,
2013-03-21 18:15:00,67.2,12.9,29.76,WNW,292,8.0,24.0,12,0.00,,,0.00,VWS V14.01,2013-03-22 00:15:00,
2013-03-21 18:18:00,67.2,12.9,29.76,West,272,9.0,9.0,12,0.00,,,0.00,VWS V14.01,2013-03-22 00:18:00,
2013-03-21 18:23:00,67.1,12.8,29.76,West,272,14.0,15.0,12,0.00,,,0.00,VWS V14.01,2013-03-22 00:23:00,
2013-03-21 18:28:00,66.8,12.6,29.76,WNW,286,4.0,15.0,12,0.00,,,0.00,VWS V14.01,2013-03-22 00:28:00,
2013-03-21 18:30:00,66.2,13.9,29.76,NW,317,1.0,19.0,13,0.00,,,0.00,VWS V14.01,2013-03-22 00:30:00,
2013-03-21 18:33:00,66.2,13.9,29.76,NW,316,1.0,2.0,13,0.00,,,0.00,VWS V14.01,2013-03-22 00:33:00,
2013-03-21 18:38:00,65.9,13.7,29.76,NW,320,10.0,19.0,13,0.00,,,0.00,VWS V14.01,2013-03-22 00:38:00,
2013-03-21 18:43:00,65.5,13.4,29.77,WNW,303,19.0,21.0,13,0.00,,,0.00,VWS V14.01,2013-03-22 00:43:00,
2013-03-21 18:45:00,65.0,13.0,29.77,NW,323,12.0,21.0,13,0.00,,,0.00,VWS V14.01,2013-03-22 00:45:00,
2013-03-21 18:48:00,64.9,12.9,29.77,NW,326,5.0,12.0,13,0.00,,,0.00,VWS V14.01,2013-03-22 00:48:00,
2013-03-21 18:53:00,64.7,12.8,29.77,NNW,327,4.0,12.0,13,0.00,,,0.00,VWS V14.01,2013-03-22 00:53:00,
2013-03-21 18:58:00,64.3,12.4,29.77,NNW,333,4.0,21.0,13,0.00,,,0.00,VWS V14.01,2013-03-22 00:58:00,
2013-03-21 19:00:00,64.0,12.2,29.77,NNW,345,5.0,21.0,13,0.00,,,0.00,VWS V14.01,2013-03-22 01:00:00,
2013-03-21 19:03:00,64.0,12.2,29.77,NW,312,2.0,5.0,13,0.00,,,0.00,VWS V14.01,2013-03-22 01:03:00,
2013-03-21 19:08:00,63.6,13.6,29.78,WNW,288,5.0,14.0,14,0.00,,,0.00,VWS V14.01,2013-03-22 01:08:00,
2013-03-21 19:13:00,63.1,13.2,29.78,WNW,303,4.0,17.0,14,0.00,,,0.00,VWS V14.01,2013-03-22 01:13:00,
2013-03-21 19:15:00,62.5,14.2,29.78,NW,317,1.0,17.0,15,0.00,,,0.00,VWS V14.01,2013-03-22 01:15:00,
2013-03-21 19:18:00,62.5,14.2,29.78,NW,313,1.0,3.0,15,0.00,,,0.00,VWS V14.01,2013-03-22 01:18:00,
2013-03-21 19:23:00,61.9,13.8,29.78,NW,308,3.0,15.0,15,0.00,,,0.00,VWS V14.01,2013-03-22 01:23:00,
2013-03-21 19:28:00,61.4,14.8,29.79,NW,321,4.0,15.0,16,0.00,,,0.00,VWS V14.01,2013-03-22 01:28:00,
2013-03-21 19:30:00,61.1,14.6,29.78,NW,315,2.0,17.0,16,0.00,,,0.00,VWS V14.01,2013-03-22 01:30:00,
2013-03-21 19:33:00,61.1,14.6,29.79,NW,322,5.0,5.0,16,0.00,,,0.00,VWS V14.01,2013-03-22 01:33:00,
2013-03-21 19:38:00,60.6,14.2,29.79,NW,326,3.0,8.0,16,0.00,,,0.00,VWS V14.01,2013-03-22 01:38:00,
2013-03-21 19:43:00,60.1,13.8,29.79,NNW,336,4.0,10.0,16,0.00,,,0.00,VWS V14.01,2013-03-22 01:43:00,
2013-03-21 19:45:00,59.9,15.0,29.79,NNW,333,10.0,15.0,17,0.00,,,0.00,VWS V14.01,2013-03-22 01:45:00,
2013-03-21 19:48:00,59.9,15.0,29.79,NW,314,4.0,10.0,17,0.00,,,0.00,VWS V14.01,2013-03-22 01:48:00,
2013-03-21 19:53:00,59.5,14.7,29.79,NW,321,4.0,10.0,17,0.00,,,0.00,VWS V14.01,2013-03-22 01:53:00,
2013-03-21 19:58:00,59.0,14.3,29.80,NW,321,1.0,10.0,17,0.00,,,0.00,VWS V14.01,2013-03-22 01:58:00,
2013-03-21 20:00:00,59.0,14.3,29.80,NNW,345,5.0,10.0,17,0.00,,,0.00,VWS V14.01,2013-03-22 02:00:00,
2013-03-21 20:03:00,59.0,14.3,29.80,NW,325,2.0,5.0,17,0.00,,,0.00,VWS V14.01,2013-03-22 02:03:00,
2013-03-21 20:08:00,58.4,15.1,29.80,NW,317,1.0,8.0,18,0.00,,,0.00,VWS V14.01,2013-03-22 02:08:00,
2013-03-21 20:13:00,58.1,14.8,29.80,NW,311,2.0,11.0,18,0.00,,,0.00,VWS V14.01,2013-03-22 02:13:00,
2013-03-21 20:15:00,57.8,14.6,29.80,NNW,337,2.0,11.0,18,0.00,,,0.00,VWS V14.01,2013-03-22 02:15:00,
2013-03-21 20:18:00,57.8,14.6,29.80,NW,318,3.0,6.0,18,0.00,,,0.00,VWS V14.01,2013-03-22 02:18:00,
2013-03-21 20:23:00,57.4,14.3,29.81,NW,325,1.0,6.0,18,0.00,,,0.00,VWS V14.01,2013-03-22 02:23:00,
2013-03-21 20:28:00,57.0,13.9,29.81,NW,306,1.0,6.0,18,0.00,,,0.00,VWS V14.01,2013-03-22 02:28:00,
2013-03-21 20:30:00,56.6,14.8,29.81,NW,309,0.0,6.0,19,0.00,,,0.00,VWS V14.01,2013-03-22 02:30:00,
2013-03-21 20:33:00,56.5,14.8,29.81,NW,317,0.0,3.0,19,0.00,,,0.00,VWS V14.01,2013-03-22 02:33:00,
2013-03-21 20:38:00,56.0,14.3,29.82,WNW,302,0.0,4.0,19,0.00,,,0.00,VWS V14.01,2013-03-22 02:38:00,
2013-03-21 20:43:00,55.6,14.0,29.82,NW,305,1.0,4.0,19,0.00,,,0.00,VWS V14.01,2013-03-22 02:43:00,
2013-03-21 20:45:00,55.2,13.7,29.82,NW,309,1.0,4.0,19,0.00,,,0.00,VWS V14.01,2013-03-22 02:45:00,
2013-03-21 20:48:00,55.2,13.7,29.82,NW,309,0.0,2.0,19,0.00,,,0.00,VWS V14.01,2013-03-22 02:48:00,
2013-03-21 20:53:00,54.9,13.4,29.82,NW,310,1.0,5.0,19,0.00,,,0.00,VWS V14.01,2013-03-22 02:53:00,
2013-03-21 20:58:00,54.9,14.6,29.82,NW,312,1.0,5.0,20,0.00,,,0.00,VWS V14.01,2013-03-22 02:58:00,
2013-03-21 21:00:00,54.8,14.5,29.83,WNW,302,2.0,5.0,20,0.00,,,0.00,VWS V14.01,2013-03-22 03:00:00,
2013-03-21 21:03:00,54.8,14.5,29.82,WNW,288,2.0,4.0,20,0.00,,,0.00,VWS V14.01,2013-03-22 03:03:00,
2013-03-21 21:08:00,54.5,14.3,29.83,NW,307,1.0,4.0,20,0.00,,,0.00,VWS V14.01,2013-03-22 03:08:00,
2013-03-21 21:13:00,54.3,14.1,29.83,NW,310,1.0,5.0,20,0.00,,,0.00,VWS V14.01,2013-03-22 03:13:00,
2013-03-21 21:15:00,54.1,13.9,29.83,WNW,292,3.0,5.0,20,0.00,,,0.00,VWS V14.01,2013-03-22 03:15:00,
2013-03-21 21:18:00,54.1,13.9,29.83,WNW,291,3.0,4.0,20,0.00,,,0.00,VWS V14.01,2013-03-22 03:18:00,
2013-03-21 21:23:00,53.8,13.7,29.84,WNW,295,0.0,6.0,20,0.00,,,0.00,VWS V14.01,2013-03-22 03:23:00,
2013-03-21 21:28:00,53.8,13.7,29.84,WNW,302,1.0,8.0,20,0.00,,,0.00,VWS V14.01,2013-03-22 03:28:00,
2013-03-21 21:30:00,53.9,14.9,29.84,West,276,4.0,8.0,21,0.00,,,0.00,VWS V14.01,2013-03-22 03:30:00,
2013-03-21 21:33:00,53.9,13.8,29.84,WNW,298,2.0,6.0,20,0.00,,,0.00,VWS V14.01,2013-03-22 03:33:00,
2013-03-21 21:38:00,53.5,13.4,29.84,West,281,4.0,6.0,20,0.00,,,0.00,VWS V14.01,2013-03-22 03:38:00,
2013-03-21 21:43:00,52.9,14.1,29.84,NW,305,2.0,6.0,21,0.00,,,0.00,VWS V14.01,2013-03-22 03:43:00,
2013-03-21 21:45:00,52.5,13.7,29.85,WNW,283,4.0,6.0,21,0.00,,,0.00,VWS V14.01,2013-03-22 03:45:00,
2013-03-21 21:48:00,52.5,13.7,29.85,NW,311,3.0,5.0,21,0.00,,,0.00,VWS V14.01,2013-03-22 03:48:00,
2013-03-21 21:54:00,52.3,13.5,29.84,WNW,303,2.0,6.0,21,0.00,,,0.00,VWS V14.01,2013-03-22 03:54:00,
2013-03-21 21:59:00,52.2,13.5,29.85,West,272,3.0,6.0,21,0.00,,,0.00,VWS V14.01,2013-03-22 03:59:00,
2013-03-21 22:00:00,52.1,13.4,29.85,WNW,299,1.0,6.0,21,0.00,,,0.00,VWS V14.01,2013-03-22 04:00:00,
2013-03-21 22:01:00,52.0,13.3,29.85,WNW,284,2.0,6.0,21,0.00,,,0.00,VWS V14.01,2013-03-22 04:01:00,
2013-03-21 22:06:00,51.7,13.0,29.85,WNW,303,1.0,5.0,21,0.00,,,0.00,VWS V14.01,2013-03-22 04:06:00,
2013-03-21 22:12:00,51.5,12.9,29.85,NW,305,0.0,5.0,21,0.00,,,0.00,VWS V14.01,2013-03-22 04:12:00,
2013-03-21 22:15:00,51.2,13.7,29.85,NW,309,0.0,5.0,22,0.00,,,0.00,VWS V14.01,2013-03-22 04:15:00,
2013-03-21 22:17:00,51.3,13.8,29.85,NW,309,1.0,5.0,22,0.00,,,0.00,VWS V14.01,2013-03-22 04:17:00,
2013-03-21 22:22:00,50.9,13.4,29.85,NW,308,0.0,2.0,22,0.00,,,0.00,VWS V14.01,2013-03-22 04:22:00,
2013-03-21 22:27:00,50.5,13.1,29.85,NW,308,0.0,2.0,22,0.00,,,0.00,VWS V14.01,2013-03-22 04:27:00,
2013-03-21 22:30:00,50.3,12.9,29.85,NW,313,0.0,2.0,22,0.00,,,0.00,VWS V14.01,2013-03-22 04:30:00,
2013-03-21 22:32:00,50.3,12.9,29.85,NW,314,0.0,2.0,22,0.00,,,0.00,VWS V14.01,2013-03-22 04:32:00,
2013-03-21 22:37:00,50.2,12.8,29.85,WNW,303,1.0,2.0,22,0.00,,,0.00,VWS V14.01,2013-03-22 04:37:00,
2013-03-21 22:42:00,50.3,12.9,29.86,WNW,299,2.0,3.0,22,0.00,,,0.00,VWS V14.01,2013-03-22 04:42:00,
2013-03-21 22:45:00,50.5,13.1,29.86,WNW,294,0.0,3.0,22,0.00,,,0.00,VWS V14.01,2013-03-22 04:45:00,
2013-03-21 22:47:00,50.5,13.1,29.86,WNW,294,1.0,3.0,22,0.00,,,0.00,VWS V14.01,2013-03-22 04:47:00,
2013-03-21 22:52:00,50.2,12.8,29.86,WNW,294,0.0,1.0,22,0.00,,,0.00,VWS V14.01,2013-03-22 04:52:00,
2013-03-21 22:57:00,49.7,12.4,29.86,WNW,294,0.0,1.0,22,0.00,,,0.00,VWS V14.01,2013-03-22 04:57:00,
2013-03-21 23:00:00,49.3,12.1,29.86,WNW,294,0.0,1.0,22,0.00,,,0.00,VWS V14.01,2013-03-22 05:00:00,
2013-03-21 23:02:00,49.3,12.1,29.86,WNW,294,0.0,1.0,22,0.00,,,0.00,VWS V14.01,2013-03-22 05:02:00,
2013-03-21 23:07:00,49.0,11.8,29.86,WNW,295,0.0,0.0,22,0.00,,,0.00,VWS V14.01,2013-03-22 05:07:00,
2013-03-21 23:12:00,48.7,11.6,29.86,WNW,295,0.0,0.0,22,0.00,,,0.00,VWS V14.01,2013-03-22 05:12:00,
2013-03-21 23:15:00,48.2,11.1,29.86,WNW,295,0.0,0.0,22,0.00,,,0.00,VWS V14.01,2013-03-22 05:15:00,
2013-03-21 23:17:00,48.3,11.2,29.86,WNW,295,0.0,0.0,22,0.00,,,0.00,VWS V14.01,2013-03-22 05:17:00,
2013-03-21 23:22:00,47.8,10.8,29.86,WNW,295,0.0,0.0,22,0.00,,,0.00,VWS V14.01,2013-03-22 05:22:00,
2013-03-21 23:27:00,47.4,10.5,29.86,WNW,296,0.0,0.0,22,0.00,,,0.00,VWS V14.01,2013-03-22 05:27:00,
2013-03-21 23:30:00,46.9,10.1,29.86,WNW,300,0.0,0.0,22,0.00,,,0.00,VWS V14.01,2013-03-22 05:30:00,
2013-03-21 23:32:00,46.9,10.1,29.86,WNW,299,0.0,0.0,22,0.00,,,0.00,VWS V14.01,2013-03-22 05:32:00,
2013-03-21 23:37:00,46.7,9.9,29.86,WNW,300,0.0,0.0,22,0.00,,,0.00,VWS V14.01,2013-03-22 05:37:00,
2013-03-21 23:43:00,46.4,9.6,29.87,WNW,296,0.0,0.0,22,0.00,,,0.00,VWS V14.01,2013-03-22 05:43:00,
2013-03-21 23:45:00,46.1,9.4,29.87,WNW,296,0.0,0.0,22,0.00,,,0.00,VWS V14.01,2013-03-22 05:45:00,
2013-03-21 23:47:00,46.1,9.4,29.87,WNW,295,0.0,0.0,22,0.00,,,0.00,VWS V14.01,2013-03-22 05:47:00,
2013-03-21 23:52:00,45.8,10.1,29.87,WNW,295,0.0,0.0,23,0.00,,,0.00,VWS V14.01,2013-03-22 05:52:00,
2013-03-21 23:58:00,45.4,9.8,29.87,WNW,295,0.0,0.0,23,0.00,,,0.00,VWS V14.01,2013-03-22 05:58:00,